Вернуться в каталог

IRIDIUM 105

АктивенСвязьPO
NORAD 41921·PAYLOAD·🇺🇸 United States

Запущен Jan 14, 2017 с Vandenberg Space Force Base

Loading…

Ближайшие Пролёты (ближайшие 24 часа)

TLE

СвежийSource: CelesTrak SupGP

Эпоха: Sep 14, 2026, 21:40 UTC

1 41921C 17003E   26257.90312500 -.00001363  00000+0 -48722-3 0  2577
2 41921  86.4015  19.3508 0002402 100.3945  29.9863 14.34220560    14

Отслеживайте IRIDIUM 105 в реальном времени с AllMySat

Download on the App Store